Phoenix, AZ

7:40 PM MST on June 19, 2018 (GMT -0700)
Phoenix Sky Harbor International

Weather History for KPHX - November, 2017

Change the Weather History Date:

Tuesday, November 14, 2017

  Actual Average Record
Temperature  
Mean Temperature 74 °F 65 °F  
Max Temperature 87 °F 76 °F 91 °F (1999)
Min Temperature 60 °F 53 °F 28 °F (1916)
Degree Days  
Heating Degree Days 0 3  
Month to date heating degree days 0 21  
Since 1 July heating degree days 0 27  
Cooling Degree Days 9 2  
Month to date cooling degree days 115 55  
Year to date cooling degree days 5116 4591  
Growing Degree Days 24 (Base 50)    
Moisture  
Dew Point 32 °F    
Average Humidity 26    
Maximum Humidity 39    
Minimum Humidity 13    
Precipitation  
Precipitation 0.00 in 0.02 in 1.58 in (1993)
Month to date precipitation T 0.27  
Year to date precipitation 4.73 6.77  
Snow  
Snow 0.00 in - - ()
Month to date snowfall 0.0  
Year to date snowfall 0.0  
Since 1 July snowfall 0.0  
Snow Depth 0.00 in    
Sea Level Pressure  
Sea Level Pressure 29.94 in    
Wind  
Wind Speed 4 mph (East)    
Max Wind Speed 10 mph    
Max Gust Speed 14 mph    
Visibility 10 miles    
Events      
T = Trace of Precipitation, MM = Missing Value Source: NWS Daily Summary

Daily Weather History Graph

Daily Weather History Graph

Search for Another Location

Airport or City:

Astronomy

Nov. 14, 2017 Rise Set
Actual Time 6:58 AM MST 5:25 PM MST
Civil Twilight 6:32 AM MST 5:52 PM MST
Nautical Twilight 6:02 AM MST 6:22 PM MST
Astronomical Twilight 5:33 AM MST 6:51 PM MST
Moon 3:17 AM MST (11/14) 3:39 PM MST (11/14)
Length of Visible Light 11h 19m
Length of Day
10h 27m
Waning Crescent, 13% of the Moon is Illuminated
Nov 14
Waning Crescent
Nov 18
New
Nov 26
First Quarter
Dec 3
Full
Dec 10
Last Quarter

Hourly Weather History & Observations

Time (MST) Temp. Dew Point Humidity Pressure Visibility Wind Dir Wind Speed Gust Speed Precip Events Conditions
12:51 AM 66.0 °F 36.0 °F 33% 29.97 in 10.0 mi ESE 3.5 mph - N/A   Scattered Clouds
1:51 AM 64.9 °F 34.0 °F 32% 29.96 in 10.0 mi East 3.5 mph - N/A   Scattered Clouds
2:51 AM 64.9 °F 33.1 °F 31% 29.96 in 10.0 mi Calm Calm - N/A   Mostly Cloudy
3:51 AM 64.0 °F 36.0 °F 35% 29.96 in 10.0 mi East 3.5 mph - N/A   Mostly Cloudy
4:51 AM 62.1 °F 37.0 °F 39% 29.96 in 10.0 mi East 5.8 mph - N/A   Mostly Cloudy
5:51 AM 60.1 °F 35.1 °F 39% 29.97 in 10.0 mi East 5.8 mph - N/A   Partly Cloudy
6:51 AM 61.0 °F 34.0 °F 36% 29.99 in 10.0 mi East 3.5 mph - N/A   Mostly Cloudy
7:51 AM 62.1 °F 30.9 °F 31% 30.01 in 10.0 mi East 3.5 mph - N/A   Scattered Clouds
8:51 AM 64.9 °F 30.0 °F 27% 30.02 in 10.0 mi ESE 5.8 mph - N/A   Partly Cloudy
9:51 AM 73.0 °F 30.9 °F 21% 30.02 in 10.0 mi East 6.9 mph - N/A   Partly Cloudy
10:51 AM 75.9 °F 32.0 °F 20% 30.00 in 10.0 mi ESE 5.8 mph - N/A   Partly Cloudy
11:51 AM 79.0 °F 34.0 °F 20% 29.97 in 10.0 mi ESE 5.8 mph - N/A   Scattered Clouds
12:51 PM 81.0 °F 32.0 °F 17% 29.94 in 10.0 mi Calm Calm - N/A   Mostly Cloudy
1:51 PM 84.9 °F 30.0 °F 14% 29.92 in 10.0 mi Calm Calm - N/A   Mostly Cloudy
2:51 PM 84.0 °F 28.9 °F 14% 29.90 in 10.0 mi Variable 3.5 mph - N/A   Mostly Cloudy
3:51 PM 84.9 °F 28.0 °F 13% 29.89 in 10.0 mi Variable 3.5 mph - N/A   Mostly Cloudy
4:51 PM 82.9 °F 26.1 °F 13% 29.88 in 10.0 mi WNW 6.9 mph - N/A   Mostly Cloudy
5:51 PM 81.0 °F 24.1 °F 12% 29.88 in 10.0 mi West 5.8 mph - N/A   Mostly Cloudy
6:51 PM 75.9 °F 30.9 °F 19% 29.90 in 10.0 mi South 3.5 mph - N/A   Mostly Cloudy
7:51 PM 75.9 °F 30.9 °F 19% 29.90 in 10.0 mi West 4.6 mph - N/A   Mostly Cloudy
8:51 PM 75.0 °F 30.9 °F 20% 29.91 in 10.0 mi NNW 4.6 mph - N/A   Scattered Clouds
9:51 PM 69.1 °F 33.1 °F 26% 29.92 in 10.0 mi Calm Calm - N/A   Partly Cloudy
10:51 PM 66.9 °F 37.0 °F 33% 29.92 in 10.0 mi East 4.6 mph - N/A   Partly Cloudy
11:51 PM 64.9 °F 34.0 °F 32% 29.93 in 10.0 mi East 4.6 mph - N/A   Partly Cloudy